RXA3752 YMTG-YMML

Flight info

Callsign RXA3752
Flight time N/A
Altitude 23000
Route MTG Y53 ALAXO V279 ML
Aircraft SF34/M-SDFGR/S

Departure

Time N/A
Airport Mount Gambier Airport (YMTG)

Arrival

Time 2026-05-01 12:16
Airport Melbourne Airport (YMML)
Time Latitude Longitude Altitude Speed Heading
2026-05-01 11:51 -37.82146 142.97394 23253 ft 264 kts 85°
2026-05-01 11:51 -37.82199 142.99715 23253 ft 264 kts 85°
2026-05-01 11:51 -37.82252 143.02028 23252 ft 263 kts 84°
2026-05-01 11:51 -37.82302 143.04339 23250 ft 263 kts 84°
2026-05-01 11:52 -37.82353 143.06650 23256 ft 263 kts 84°
2026-05-01 11:52 -37.82403 143.08962 23257 ft 263 kts 84°
2026-05-01 11:52 -37.82454 143.11281 23257 ft 264 kts 84°
2026-05-01 11:52 -37.82503 143.13609 23258 ft 265 kts 84°
2026-05-01 11:53 -37.82553 143.15947 23263 ft 267 kts 84°
2026-05-01 11:53 -37.82602 143.18264 23265 ft 268 kts 84°
2026-05-01 11:53 -37.82650 143.20622 23267 ft 269 kts 84°
2026-05-01 11:53 -37.82700 143.22989 23271 ft 270 kts 84°
2026-05-01 11:54 -37.82748 143.25363 23270 ft 271 kts 84°
2026-05-01 11:54 -37.82797 143.27745 23275 ft 271 kts 84°
2026-05-01 11:54 -37.82844 143.30122 23279 ft 270 kts 84°
2026-05-01 11:54 -37.82892 143.32502 23283 ft 271 kts 84°
2026-05-01 11:55 -37.82938 143.34886 23281 ft 272 kts 84°
2026-05-01 11:55 -37.82985 143.37280 23287 ft 273 kts 84°
2026-05-01 11:55 -37.83034 143.39680 23287 ft 273 kts 84°
2026-05-01 11:55 -37.83072 143.42089 23287 ft 274 kts 84°
2026-05-01 11:56 -37.83121 143.44475 23287 ft 276 kts 84°
2026-05-01 11:56 -37.83167 143.46904 23288 ft 278 kts 84°
2026-05-01 11:56 -37.83210 143.49355 23290 ft 280 kts 84°
2026-05-01 11:56 -37.83257 143.51822 23286 ft 281 kts 84°
2026-05-01 11:57 -37.83301 143.54290 23290 ft 281 kts 84°
2026-05-01 11:57 -37.83345 143.56769 23293 ft 282 kts 84°
2026-05-01 11:57 -37.83389 143.59254 23290 ft 283 kts 84°
2026-05-01 11:57 -37.83432 143.61751 23293 ft 284 kts 84°
2026-05-01 11:58 -37.83475 143.64257 23294 ft 286 kts 84°
2026-05-01 11:58 -37.83517 143.66774 23299 ft 287 kts 84°
2026-05-01 11:58 -37.83601 143.71808 23300 ft 289 kts 84°
2026-05-01 11:59 -37.83643 143.74356 23300 ft 290 kts 84°
2026-05-01 11:59 -37.83683 143.76908 23296 ft 291 kts 85°
2026-05-01 11:59 -37.83725 143.79468 23303 ft 291 kts 85°
2026-05-01 12:00 -37.83804 143.84591 23303 ft 292 kts 85°
2026-05-01 12:00 -37.83843 143.87156 23306 ft 292 kts 85°
2026-05-01 12:00 -37.83920 143.92288 23307 ft 292 kts 85°
2026-05-01 12:01 -37.83954 143.94871 23130 ft 298 kts 85°
2026-05-01 12:01 -37.83989 143.97529 22745 ft 313 kts 84°
2026-05-01 12:01 -37.83595 144.00240 22377 ft 318 kts 67°
2026-05-01 12:01 -37.82912 144.02960 21975 ft 330 kts 69°
2026-05-01 12:02 -37.82365 144.05694 21544 ft 306 kts 72°
2026-05-01 12:02 -37.81902 144.08230 21092 ft 289 kts 70°
2026-05-01 12:02 -37.81367 144.10644 20644 ft 282 kts 69°
2026-05-01 12:02 -37.80876 144.13028 20202 ft 279 kts 71°
2026-05-01 12:03 -37.80407 144.15401 19771 ft 277 kts 70°
2026-05-01 12:03 -37.79907 144.17743 19341 ft 275 kts 70°
2026-05-01 12:03 -37.79430 144.20080 18913 ft 275 kts 70°
2026-05-01 12:03 -37.78958 144.22385 18508 ft 274 kts 70°
2026-05-01 12:04 -37.78472 144.24710 18033 ft 273 kts 70°
2026-05-01 12:04 -37.77992 144.27039 17568 ft 274 kts 70°
2026-05-01 12:04 -37.77511 144.29363 17104 ft 273 kts 70°
2026-05-01 12:04 -37.77029 144.31683 16653 ft 272 kts 70°
2026-05-01 12:05 -37.76549 144.33996 16194 ft 272 kts 70°
2026-05-01 12:05 -37.75579 144.38663 15076 ft 275 kts 71°
2026-05-01 12:05 -37.75091 144.41003 14540 ft 275 kts 71°
2026-05-01 12:06 -37.74605 144.43339 14012 ft 275 kts 71°
2026-05-01 12:06 -37.74149 144.45641 13432 ft 273 kts 76°
2026-05-01 12:06 -37.74263 144.48051 12854 ft 282 kts 104°
2026-05-01 12:06 -37.75253 144.50193 12270 ft 286 kts 131°
2026-05-01 12:07 -37.76709 144.51816 11712 ft 268 kts 141°
2026-05-01 12:07 -37.78145 144.53173 11144 ft 247 kts 142°
2026-05-01 12:07 -37.79547 144.54513 10589 ft 265 kts 135°
2026-05-01 12:07 -37.80536 144.56393 10046 ft 249 kts 104°
2026-05-01 12:08 -37.80645 144.58525 9452 ft 245 kts 76°
2026-05-01 12:08 -37.80417 144.60557 8877 ft 234 kts 86°
2026-05-01 12:08 -37.80648 144.62559 8304 ft 228 kts 98°
2026-05-01 12:08 -37.80983 144.64499 7719 ft 224 kts 95°
2026-05-01 12:09 -37.81219 144.66429 7167 ft 220 kts 91°
2026-05-01 12:09 -37.81402 144.68260 6650 ft 232 kts 90°
2026-05-01 12:09 -37.81658 144.70332 6115 ft 237 kts 93°
2026-05-01 12:09 -37.81942 144.72333 6009 ft 225 kts 92°
2026-05-01 12:10 -37.82348 144.74218 5893 ft 227 kts 111°
2026-05-01 12:10 -37.84060 144.77597 5271 ft 227 kts 112°
2026-05-01 12:10 -37.84625 144.79415 4885 ft 217 kts 90°
2026-05-01 12:11 -37.83927 144.82812 4088 ft 187 kts 69°
2026-05-01 12:11 -37.83740 144.84305 3993 ft 155 kts 74°
2026-05-01 12:11 -37.83548 144.85501 3768 ft 140 kts 47°
2026-05-01 12:12 -37.82761 144.86393 3488 ft 159 kts 24°
2026-05-01 12:12 -37.81754 144.86585 3119 ft 143 kts 354°
2026-05-01 12:12 -37.80799 144.86350 2681 ft 134 kts 359°
2026-05-01 12:12 -37.79820 144.86212 2539 ft 155 kts 356°
2026-05-01 12:13 -37.78815 144.86023 2518 ft 142 kts 355°
2026-05-01 12:13 -37.77889 144.85831 2451 ft 122 kts 356°
2026-05-01 12:13 -37.77025 144.85682 1985 ft 126 kts 359°
2026-05-01 12:13 -37.76169 144.85538 1516 ft 127 kts 358°
2026-05-01 12:14 -37.75285 144.85361 1202 ft 147 kts 353°
2026-05-01 12:14 -37.74122 144.85120 1077 ft 189 kts 354°
2026-05-01 12:14 -37.72934 144.84916 965 ft 153 kts 353°
2026-05-01 12:14 -37.71877 144.84708 844 ft 152 kts 351°
2026-05-01 12:15 -37.70919 144.84539 709 ft 132 kts 354°
2026-05-01 12:15 -37.69925 144.84346 586 ft 155 kts 352°
2026-05-01 12:15 -37.68855 144.84143 407 ft 147 kts 353°
2026-05-01 12:15 -37.67935 144.83986 346 ft 119 kts 353°
2026-05-01 12:16 -37.67522 144.83904 359 ft 24 kts 348°
2026-05-01 12:16 -37.67308 144.83865 368 ft 38 kts 352°
2026-05-01 12:16 -37.67073 144.83835 375 ft 18 kts
2026-05-01 12:16 -37.66939 144.83867 378 ft 6 kts 19°
2026-05-01 12:17 -37.66938 144.83868 378 ft 0 kts 19°
2026-05-01 12:17 -37.66892 144.83887 379 ft 18 kts 19°
2026-05-01 12:18 -37.66877 144.83895 379 ft 0 kts 25°
2026-05-01 12:18 -37.66850 144.83910 379 ft 0 kts 22°